Temperature
26 27 27 27 27 27 27 26 26 24 23 22 23 23 22 20 19 20 19 19 19 18 17 16 15 14 14 13 13 13 13 12 12 12 12 12 13 13 13 13 13 13 13 13
27 27 26 26 26 26 26 26 25 23 22 22 23 23 23 21 20 20 20 19 19 18 17 16 15 15 14 13 13 13 13 12 12 12 12 12 12 12 12 12 13 13 13 13
27 26 25 25 25 25 25 25 24 23 22 22 22 23 22 21 20 19 19 19 18 17 17 16 16 15 14 14 13 13 12 12 12 12 12 12 12 12 12 12 12 13 13 13
26 25 25 25 25 25 24 23 23 22 23 23 22 23 23 22 21 20 19 19 18 17 17 16 15 15 14 14 13 13 12 12 12 11 12 12 12 12 12 12 12 12 12 13
24 24 25 25 24 24 23 22 23 22 23 23 23 23 24 22 22 22 20 19 18 17 16 16 15 14 14 13 13 12 12 12 11 11 11 11 12 11 12 12 12 12 12 12
24 23 24 24 22 22 22 22 22 22 23 23 23 23 23 23 22 22 20 19 18 17 16 16 15 14 14 13 13 12 12 12 11 11 11 11 11 11 11 11 12 12 12 12
24 24 23 23 23 22 23 23 23 23 23 23 22 22 23 23 22 21 20 19 18 17 17 16 15 15 14 14 13 13 12 12 12 11 11 11 11 11 11 11 11 11 11 12
25 24 23 23 24 23 23 24 23 23 23 23 22 22 24 22 20 19 19 19 18 17 17 16 15 15 14 14 13 13 12 12 12 11 11 11 11 11 11 11 11 11 11 11
26 24 22 22 22 23 23 23 23 23 23 23 24 23 23 21 21 20 19 18 18 17 17 16 16 15 15 14 14 13 13 12 12 12 11 11 11 11 11 11 11 11 11 11
26 24 22 21 22 21 22 22 22 22 22 23 23 23 23 23 22 22 20 19 18 17 17 16 16 15 15 14 14 14 13 13 12 12 12 11 11 11 11 10 10 11 11 11
26 25 22 22 22 23 21 21 22 22 22 22 23 24 23 23 22 22 21 19 18 18 17 16 16 15 15 15 14 14 13 13 13 12 12 11 11 11 10 10 10 10 10 11
24 25 24 23 22 21 22 22 22 22 22 21 22 23 23 22 21 20 20 19 18 17 17 16 16 15 15 15 15 14 14 13 13 12 12 11 11 11 11 10 10 10 10 10
23 24 24 23 22 21 21 21 21 21 22 22 22 23 22 22 21 20 19 19 18 17 17 16 16 16 15 15 15 14 14 14 13 13 12 12 11 11 11 10 10 10 10 10
22 24 24 24 24 23 22 20 20 21 22 22 22 23 23 23 22 21 20 19 18 18 17 17 16 16 16 15 15 15 14 14 13 13 12 12 11 11 10 10 10 10 10 10
23 24 24 23 22 22 22 21 20 21 22 23 23 22 23 23 22 21 20 19 18 18 17 17 16 16 16 16 15 15 14 14 14 13 12 12 11 11 10 10 10 9 9 10
23 23 23 23 22 22 22 22 21 21 21 22 22 22 23 22 20 20 20 19 19 18 18 17 17 17 16 16 15 15 14 14 14 13 12 12 11 11 10 10 10 9 9 9
23 23 23 24 22 22 23 24 22 22 22 22 22 23 23 22 21 21 20 19 19 19 18 17 17 17 17 16 16 16 15 14 14 13 12 12 11 11 10 10 10 10 9 9
23 23 23 23 23 22 25 24 23 22 22 22 22 22 22 21 20 19 19 19 19 19 18 17 17 17 17 16 16 15 15 14 14 13 13 12 11 11 10 10 10 10 10 9
22 22 23 23 23 24 23 23 23 23 23 23 22 22 22 20 21 22 20 19 19 19 18 18 17 17 17 16 16 16 15 15 14 14 13 12 12 11 11 10 10 10 10 10
20 22 23 22 23 23 24 23 22 23 23 23 23 23 22 21 23 23 20 19 19 19 18 18 17 17 17 16 16 16 16 15 15 14 13 13 12 12 11 11 10 10 10 10
21 21 22 22 23 24 23 21 22 23 24 22 22 22 21 22 22 20 19 19 19 19 19 18 18 17 17 17 16 16 16 16 15 15 14 14 13 12 12 12 11 11 10 10
23 22 22 22 22 24 21 21 23 23 21 21 21 20 20 20 19 19 18 19 19 19 19 19 18 18 17 17 17 16 16 16 15 15 15 14 14 13 13 12 12 11 11 10
23 24 23 24 24 20 18 20 18 17 19 20 20 19 19 19 19 18 18 18 19 19 19 19 18 18 17 17 17 17 16 16 16 16 15 15 14 14 13 13 12 12 11 11
23 20 21 22 22 19 17 16 15 16 17 17 18 18 18 18 18 17 17 18 18 18 18 19 18 18 17 17 17 17 17 16 16 16 15 15 15 14 14 14 13 12 12 11
23 20 22 22 21 17 16 15 15 15 16 16 16 17 17 17 17 17 17 17 18 18 18 18 18 17 17 17 16 17 16 16 16 16 16 15 15 15 15 14 14 13 13 12
22 21 22 24 22 21 19 15 14 14 15 15 15 15 16 16 16 16 16 16 16 16 17 17 17 17 16 16 16 16 16 16 16 16 16 15 15 15 15 15 14 14 14 13
Wind_Speed
6 8 8 6 3 2 3 5 5 0 2 5 8 8 6 8 9 8 7 5 4 4 4 6 7 7 8 9 10 10 10 10 9 8 8 7 7 6 6 6 7 7 7 7
9 7 4 5 5 3 2 4 3 2 1 4 6 9 6 8 10 9 8 6 5 4 4 5 6 8 8 9 9 10 10 10 9 8 8 7 7 6 6 6 6 7 7 7
9 7 7 7 6 3 0 3 2 2 2 4 6 7 6 7 9 9 9 8 6 4 5 6 6 7 8 8 9 9 9 9 9 9 7 7 6 5 6 7 7 7 8 7
7 6 7 6 3 1 1 1 2 3 4 2 3 4 3 4 8 10 10 9 7 4 4 5 6 7 8 8 8 9 8 8 8 8 8 9 7 7 7 7 7 8 7 7
7 6 6 4 3 1 3 3 2 3 5 5 4 5 2 3 4 5 7 8 7 5 4 4 5 6 7 7 6 7 7 7 7 7 7 7 7 7 7 7 8 8 7 7
8 4 3 4 4 3 6 5 3 4 5 5 2 4 2 1 2 1 2 6 6 5 4 4 4 5 5 5 5 5 6 6 6 7 7 8 8 8 9 9 9 8 6 6
7 5 4 3 5 5 5 5 4 5 4 2 2 5 4 1 2 3 3 3 5 5 4 4 4 5 6 6 5 5 5 6 6 7 7 7 8 8 8 9 8 8 7 7
8 6 4 2 2 2 3 4 4 3 2 1 3 4 1 1 2 3 4 4 5 5 5 4 5 5 6 5 5 5 5 5 6 6 7 7 7 6 6 8 8 8 7 7
5 5 5 3 2 1 3 2 3 4 3 4 3 3 2 3 4 4 5 6 6 6 5 5 5 5 5 5 5 5 5 5 5 6 6 7 7 7 7 8 8 7 7 8
3 5 6 5 4 4 2 2 3 3 3 3 2 3 1 1 2 2 5 7 7 7 6 6 5 5 5 5 5 5 6 6 5 5 5 5 6 6 6 7 8 9 9 8
3 5 7 6 6 4 4 3 3 3 3 4 2 2 2 2 3 4 4 5 6 7 7 6 5 5 5 5 5 5 5 6 5 5 5 6 6 6 6 6 7 8 8 9
2 4 5 4 2 1 3 4 5 4 2 3 4 1 4 3 4 6 6 5 6 7 7 7 6 6 6 6 6 5 6 6 5 5 5 6 6 6 7 7 7 8 9 9
5 4 5 5 5 5 5 4 5 3 3 4 3 0 4 3 6 6 7 6 6 7 8 7 7 6 6 6 6 5 6 5 5 5 5 5 6 6 7 7 7 8 8 8
3 6 6 3 1 5 6 7 8 7 4 4 5 6 5 7 7 5 5 6 7 8 8 8 7 6 6 6 6 5 5 5 5 5 5 5 5 6 7 7 7 8 8 8
4 6 6 2 1 3 5 8 11 11 7 5 5 8 11 8 7 6 4 5 7 9 9 9 8 7 6 6 6 5 5 4 4 5 5 5 5 5 6 6 7 7 8 8
5 5 5 6 4 5 7 9 11 11 9 9 10 9 5 4 5 5 4 5 7 9 9 9 8 7 7 5 5 4 4 3 4 4 4 4 4 5 5 6 7 7 8 8
7 7 6 6 5 4 9 11 12 7 8 7 5 3 5 6 5 5 4 5 7 7 8 8 8 7 6 5 5 4 4 3 4 4 4 3 4 4 5 6 6 7 8 8
7 7 5 4 6 7 2 4 7 7 6 8 8 7 7 7 7 6 6 6 6 6 7 8 8 7 7 6 5 4 4 4 4 4 3 3 4 4 5 5 6 7 7 8
4 6 5 4 6 5 4 6 7 7 4 5 6 4 4 3 4 1 1 3 5 5 6 6 6 7 6 6 5 5 5 4 4 4 4 4 4 4 5 6 6 7 7 8
3 5 6 5 6 5 5 7 5 5 6 4 4 2 1 2 1 3 4 3 3 4 4 5 6 7 7 6 5 6 6 6 6 5 5 5 5 5 6 6 6 6 7 7
9 7 9 9 7 5 5 7 6 7 5 5 3 2 2 2 4 5 5 4 3 3 4 5 6 7 7 7 7 8 8 7 6 5 6 6 7 7 7 6 6 6 7 7
11 8 8 8 8 6 7 9 7 2 4 3 2 2 2 3 4 4 4 4 4 3 3 4 6 7 7 7 8 10 10 8 6 6 8 8 8 8 7 7 7 7 7 7
9 7 5 7 3 4 4 4 1 1 3 2 2 2 3 2 2 3 4 4 4 4 3 3 5 6 6 7 8 11 10 8 7 8 9 10 10 9 9 9 9 8 7 7
8 5 5 6 6 5 4 3 3 3 4 3 2 2 1 1 1 3 4 5 5 6 5 3 3 5 6 6 7 9 10 8 9 10 11 10 10 10 10 8 8 8 7 7
7 9 7 8 5 6 7 6 5 4 4 4 4 3 3 3 4 4 5 6 7 7 6 5 5 5 6 7 6 7 8 9 10 11 11 11 10 10 10 10 9 9 9 8
9 9 9 9 10 9 8 10 8 8 7 7 7 7 6 5 6 6 7 7 7 8 8 8 8 8 8 8 8 9 9 8 10 10 11 9 9 9 9 9 9 12 13 10
Wind_Direction
168 192 195 188 207 295 282 277 283 137 170 236 253 262 228 205 218 229 234 245 276 321 348 359 355 350 349 353 350 351 353 356 353 350 346 345 343 337 341 338 338 324 313 303
174 179 126 118 134 157 225 272 266 162 168 255 269 267 247 219 227 237 245 251 265 299 325 344 348 354 353 350 347 351 357 356 355 353 344 339 335 331 339 337 337 337 330 319
193 130 139 148 151 163 202 292 277 222 183 221 280 262 218 217 227 233 242 252 261 284 315 337 345 350 347 349 350 350 354 351 356 353 349 343 346 341 349 349 345 342 336 327
112 127 152 154 132 266 174 98 179 204 241 240 272 295 180 203 226 233 236 238 247 260 292 320 333 341 343 348 346 347 352 353 356 352 356 354 352 352 347 341 340 339 343 340
120 139 155 139 95 57 101 123 185 238 261 267 227 269 195 174 249 244 234 231 236 246 273 303 319 329 334 338 339 342 349 352 357 355 355 348 354 348 345 345 345 344 347 346
108 103 71 101 95 98 138 159 167 214 244 251 217 263 270 191 301 312 224 221 224 234 256 282 303 314 327 333 335 338 344 351 354 351 354 357 352 348 348 349 348 345 347 346
131 121 106 133 145 149 204 238 235 216 218 224 140 257 270 36 294 272 260 226 215 227 251 272 296 312 325 331 330 331 339 345 349 349 351 353 352 346 347 347 346 343 342 344
174 161 137 155 243 198 209 259 281 290 282 226 201 248 291 98 266 248 239 234 220 227 245 264 286 298 307 315 314 315 327 334 339 342 346 347 347 343 345 343 340 339 338 338
192 142 118 99 103 209 192 218 328 286 284 268 219 245 261 177 228 229 231 230 231 232 239 255 274 292 302 305 303 296 302 315 327 333 336 339 345 346 343 339 340 341 340 337
181 152 153 141 146 63 356 150 210 249 273 266 238 244 246 218 300 252 240 237 236 234 240 249 266 283 293 297 294 286 282 294 308 318 326 331 336 340 337 335 343 342 341 340
200 184 160 184 218 204 168 189 226 248 269 284 295 109 90 306 313 303 284 250 235 230 236 246 264 282 289 289 286 281 277 282 294 305 316 323 333 334 332 336 340 337 337 340
175 230 193 175 120 346 235 231 225 256 236 263 287 279 127 254 285 283 278 257 233 228 231 243 261 276 281 287 292 288 284 282 287 294 303 314 326 328 332 338 337 335 338 339
165 210 196 177 183 191 207 204 218 242 247 237 256 227 134 258 283 277 264 251 227 221 226 236 249 264 276 285 291 289 288 288 283 283 295 308 320 327 333 335 337 334 337 336
213 225 244 270 111 165 189 192 202 214 237 246 249 287 308 314 314 302 267 242 228 221 223 233 243 254 266 279 286 291 295 293 282 277 286 303 316 324 328 335 335 336 337 335
224 236 225 225 150 197 215 201 201 218 245 265 287 293 303 320 320 310 287 244 225 224 224 229 238 250 259 270 282 291 298 294 284 281 287 302 312 319 326 330 331 331 332 334
214 225 206 206 206 228 239 226 214 227 244 255 275 286 293 312 298 289 274 243 232 229 226 227 233 244 254 262 275 285 290 293 284 285 289 298 303 317 324 330 330 331 332 335
193 207 212 212 185 227 244 221 204 208 216 232 253 306 329 308 308 303 297 260 247 238 228 227 231 240 251 260 274 288 304 297 287 290 292 294 298 310 320 327 326 328 329 333
197 201 214 219 197 229 127 118 182 202 220 225 254 287 301 299 296 285 277 267 259 241 229 225 227 231 240 247 254 268 272 273 278 285 287 287 288 297 307 314 319 322 326 328
226 203 214 222 223 238 188 178 180 193 187 198 230 271 309 312 269 181 22 278 263 252 235 228 227 231 237 243 252 257 261 266 274 279 276 274 275 285 297 308 316 323 323 323
193 226 228 221 231 232 166 144 169 198 185 170 208 255 314 282 294 55 23 335 282 253 236 230 225 230 237 241 243 253 266 267 269 269 264 260 262 271 282 295 305 313 313 314
191 206 223 228 237 243 138 144 168 202 166 146 189 236 252 273 349 353 341 334 316 271 245 235 232 235 239 240 237 249 262 265 266 257 254 251 252 259 269 280 287 294 303 308
196 197 206 209 223 221 143 167 196 116 109 153 194 232 264 293 323 335 339 338 330 307 268 246 242 245 243 239 241 254 264 270 263 248 247 248 249 253 257 260 272 281 290 296
211 213 207 212 218 91 164 198 35 291 228 217 229 249 263 273 334 1 8 7 2 346 318 276 260 263 258 245 244 258 269 271 260 251 249 250 251 248 250 256 262 270 274 284
198 195 209 221 222 198 191 206 222 234 234 235 232 232 221 183 43 36 33 26 20 15 4 335 294 281 282 276 261 266 277 276 265 261 261 258 255 253 247 245 255 262 269 274
191 183 207 223 192 179 205 203 192 180 170 153 134 115 108 108 79 60 50 37 27 21 16 8 350 332 324 318 305 298 294 284 272 269 267 266 261 259 259 253 247 253 256 259
194 193 202 223 200 191 185 170 170 163 153 144 132 112 91 86 81 71 59 44 36 31 26 23 16 5 356 352 347 342 329 305 283 275 272 269 264 259 257 259 255 231 237 237
Height
1531 1530 1531 1531 1533 1535 1536 1538 1541 1546 1550 1550 1548 1547 1550 1556 1558 1558 1559 1560 1560 1560 1560 1559 1557 1555 1553 1550 1547 1544 1541 1538 1534 1530 1528 1525 1522 1520 1518 1516 1513 1512 1510 1509
1529 1531 1534 1535 1537 1537 1537 1540 1543 1549 1551 1550 1547 1546 1547 1552 1554 1556 1556 1557 1558 1559 1558 1558 1556 1554 1552 1549 1547 1544 1541 1537 1534 1530 1527 1524 1522 1519 1517 1514 1512 1510 1508 1507
1523 1533 1537 1537 1538 1539 1541 1542 1544 1548 1551 1550 1549 1544 1545 1548 1552 1554 1555 1556 1556 1557 1557 1556 1555 1553 1551 1549 1546 1543 1540 1537 1534 1530 1527 1524 1522 1519 1517 1514 1511 1509 1507 1505
1531 1536 1537 1537 1540 1539 1544 1546 1547 1549 1549 1546 1551 1548 1540 1542 1547 1550 1551 1553 1554 1555 1555 1555 1554 1552 1550 1548 1545 1543 1540 1537 1533 1530 1527 1524 1522 1519 1516 1513 1510 1508 1506 1503
1535 1536 1537 1539 1543 1542 1545 1548 1547 1548 1547 1547 1546 1548 1538 1542 1543 1543 1547 1550 1552 1553 1554 1553 1552 1551 1549 1547 1544 1541 1539 1536 1533 1530 1527 1524 1522 1519 1516 1513 1510 1507 1505 1502
1536 1540 1539 1541 1546 1546 1548 1548 1548 1548 1545 1550 1545 1548 1542 1537 1539 1541 1545 1547 1549 1551 1552 1552 1551 1550 1548 1546 1543 1541 1538 1535 1532 1530 1527 1524 1521 1519 1516 1513 1510 1507 1505 1502
1538 1540 1542 1544 1545 1547 1546 1546 1549 1549 1549 1546 1546 1548 1541 1536 1540 1542 1544 1545 1547 1549 1550 1550 1549 1548 1547 1545 1542 1540 1538 1535 1532 1530 1527 1524 1521 1518 1516 1512 1509 1506 1504 1501
1535 1541 1541 1543 1542 1542 1544 1543 1549 1552 1548 1543 1547 1544 1535 1537 1541 1542 1543 1544 1546 1547 1548 1548 1547 1547 1545 1543 1541 1539 1537 1534 1532 1529 1527 1524 1521 1518 1515 1512 1509 1506 1503 1501
1528 1539 1544 1545 1545 1543 1544 1543 1544 1545 1546 1547 1538 1536 1533 1537 1538 1540 1542 1543 1544 1545 1546 1546 1546 1545 1544 1542 1540 1538 1536 1534 1531 1529 1526 1524 1521 1518 1515 1512 1509 1506 1503 1500
1522 1536 1542 1546 1546 1548 1544 1544 1546 1547 1550 1546 1541 1539 1535 1533 1534 1536 1538 1540 1541 1542 1543 1544 1544 1543 1542 1540 1538 1536 1534 1533 1531 1528 1525 1523 1520 1517 1514 1511 1508 1505 1502 1499
1523 1530 1543 1544 1543 1541 1548 1548 1546 1545 1547 1548 1544 1538 1530 1532 1533 1534 1535 1537 1538 1540 1541 1541 1541 1541 1540 1538 1537 1535 1533 1531 1529 1527 1525 1522 1519 1516 1514 1511 1507 1504 1502 1499
1528 1526 1533 1538 1542 1543 1542 1543 1544 1546 1545 1547 1547 1540 1530 1532 1534 1534 1534 1535 1536 1537 1538 1539 1539 1539 1538 1537 1535 1534 1532 1530 1528 1525 1523 1521 1518 1516 1513 1510 1507 1504 1501 1498
1529 1529 1536 1542 1546 1546 1543 1544 1545 1544 1544 1544 1546 1537 1530 1531 1532 1532 1532 1533 1534 1535 1536 1536 1537 1536 1536 1535 1533 1532 1530 1528 1526 1523 1522 1520 1517 1515 1512 1509 1506 1503 1500 1497
1530 1526 1530 1535 1531 1533 1539 1544 1545 1543 1540 1539 1539 1532 1527 1527 1527 1528 1529 1530 1531 1532 1533 1534 1534 1534 1534 1533 1531 1530 1528 1526 1524 1522 1520 1518 1516 1513 1510 1508 1504 1502 1499 1496
1529 1525 1526 1529 1532 1532 1533 1537 1542 1540 1535 1535 1530 1531 1527 1525 1526 1527 1527 1527 1528 1529 1530 1531 1531 1531 1531 1531 1530 1528 1526 1524 1522 1520 1518 1516 1514 1512 1509 1506 1503 1500 1498 1495
1527 1526 1528 1531 1532 1532 1533 1531 1534 1537 1535 1533 1532 1530 1524 1525 1525 1525 1524 1524 1525 1525 1526 1527 1528 1529 1529 1529 1528 1527 1525 1523 1520 1519 1517 1514 1512 1510 1508 1505 1502 1499 1497 1494
1525 1525 1528 1527 1530 1532 1530 1521 1527 1529 1528 1528 1527 1524 1523 1523 1523 1522 1522 1522 1522 1523 1523 1524 1525 1526 1526 1526 1526 1525 1523 1521 1519 1518 1515 1513 1511 1509 1506 1504 1501 1498 1496 1493
1524 1524 1525 1525 1530 1537 1517 1516 1519 1523 1524 1524 1523 1522 1522 1522 1521 1521 1520 1520 1520 1520 1521 1521 1522 1523 1524 1524 1523 1522 1521 1519 1518 1516 1514 1512 1509 1507 1505 1502 1500 1497 1495 1492
1525 1524 1525 1525 1526 1521 1518 1517 1519 1521 1519 1519 1521 1521 1520 1520 1519 1518 1518 1517 1517 1518 1518 1519 1520 1521 1521 1522 1521 1521 1520 1518 1517 1515 1513 1510 1508 1506 1504 1501 1499 1496 1493 1490
1528 1524 1523 1526 1527 1524 1512 1513 1516 1519 1519 1517 1519 1519 1519 1519 1514 1516 1517 1516 1516 1516 1516 1517 1517 1518 1519 1519 1518 1518 1517 1516 1515 1513 1511 1509 1506 1504 1502 1500 1497 1495 1492 1489
1524 1524 1523 1523 1522 1511 1509 1514 1517 1521 1516 1516 1517 1517 1518 1517 1516 1517 1516 1515 1514 1514 1514 1514 1515 1515 1516 1516 1515 1515 1515 1514 1512 1510 1508 1506 1504 1502 1500 1498 1495 1493 1490 1487
1512 1515 1517 1517 1520 1513 1510 1513 1512 1511 1513 1514 1516 1516 1517 1516 1516 1515 1514 1513 1512 1512 1512 1512 1512 1513 1513 1512 1512 1512 1512 1511 1509 1507 1505 1504 1502 1500 1498 1496 1493 1491 1488 1486
1505 1504 1503 1505 1506 1507 1509 1509 1510 1511 1512 1513 1514 1514 1515 1515 1515 1514 1512 1511 1510 1510 1510 1510 1510 1510 1510 1509 1509 1508 1508 1507 1505 1504 1502 1501 1499 1497 1495 1493 1491 1489 1486 1484
1500 1505 1504 1503 1502 1506 1507 1508 1508 1508 1510 1511 1511 1512 1513 1513 1513 1512 1511 1510 1509 1508 1508 1507 1507 1507 1507 1506 1505 1504 1504 1502 1501 1500 1499 1497 1496 1494 1492 1490 1488 1486 1484 1482
1493 1500 1499 1498 1500 1504 1505 1505 1505 1506 1507 1508 1509 1510 1510 1511 1511 1510 1510 1508 1507 1507 1506 1505 1504 1503 1503 1502 1501 1500 1498 1497 1496 1495 1494 1493 1491 1490 1488 1486 1484 1482 1480 1479
1491 1492 1493 1490 1491 1495 1498 1500 1502 1504 1506 1507 1508 1508 1508 1509 1509 1509 1508 1507 1506 1505 1504 1503 1502 1501 1499 1498 1497 1495 1493 1492 1491 1490 1489 1488 1486 1485 1483 1482 1480 1478 1476 1474